[[{"header":{"parameterUnit":"m.s-1","parameterCategory":1,"la1":30.2991,"la2":30.254,"lo1":-89.0895,"lo2":-89.0444,"dy":0.0017,"dx":0.0017,"nx":28,"ny":28,"refTime":"2023-09-19T09:00:00:Z","depth":0,"parameterNumber":2,"parameterNumberName":"U-component_of_WINDS"},"data":[0,0,0,0,0,0,0,0,0,0,0,0,0,0,0,0,0,0,0,0,0,0,0,0,0,0,0,0,0,0,0,0,0,0,0,0,0,0,0,0,0,0,0,0,0,0,0,0,0,0,0,0,0,0,0,0,0,0,-2.4839,-2.4839,0,-2.4873,-2.4873,-2.4874,-2.4852,-2.4851,-2.4849,-2.4849,-2.4881,-2.4883,-2.4885,0,0,0,0,0,0,0,0,0,0,0,0,0,-2.4753,-2.4755,-2.4839,-2.4839,-2.484,-2.4873,-2.4873,-2.4874,-2.4852,-2.485,-2.4849,-2.4848,-2.4881,-2.4883,-2.4885,0,0,0,0,0,0,0,0,0,0,0,0,0,-2.4789,-2.4755,-2.4839,-2.4833,-2.4832,-2.4873,-2.4873,-2.4874,-2.4852,-2.485,-2.4849,-2.4847,-2.488,-2.4883,-2.4885,-2.4933,0,0,-2.4894,-2.4895,0,0,0,0,0,0,0,0,-2.4787,-2.4792,-2.4833,-2.4833,-2.4833,-2.4856,-2.4855,-2.4893,-2.4852,-2.4845,-2.4849,-2.4847,-2.4874,-2.4877,-2.4887,-2.4934,-2.4936,-2.4894,-2.4896,-2.4897,-2.4898,0,0,0,0,0,0,0,-2.4785,-2.4791,-2.4852,-2.4834,-2.4834,-2.4828,-2.4831,-2.4862,-2.4867,-2.4845,-2.4844,-2.4848,-2.4874,-2.4884,-2.4888,-2.4936,-2.4894,-2.4896,-2.4898,-2.4899,-2.5024,-2.5026,0,0,0,0,0,0,-2.4783,-2.4789,-2.4851,-2.4853,-2.4806,-2.4831,-2.4834,-2.485,-2.4867,-2.4868,-2.4849,-2.4847,-2.488,-2.4884,-2.4889,-2.4945,-2.4897,-2.4899,-2.4901,-2.5023,-2.5025,-2.5026,0,0,0,0,0,0,-2.4781,-2.4789,-2.485,-2.4821,-2.4828,-2.4834,-2.4852,-2.4852,-2.4862,-2.487,-2.4871,-2.4859,-2.4879,-2.4885,-2.4922,-2.4946,-2.4901,-2.4903,-2.5021,-2.5023,-2.5025,-2.5058,0,0,0,0,0,0,-2.4779,-2.4788,-2.4806,-2.4821,-2.483,-2.4883,-2.4853,-2.4854,-2.4867,-2.4865,-2.488,-2.4881,-2.4879,-2.4918,-2.4925,-2.4949,-2.4905,-2.5018,-2.5022,-2.5025,-2.5055,-2.5061,-2.5067,0,0,0,0,0,-2.4776,-2.4814,-2.4807,-2.4815,-2.4853,-2.4884,-2.4889,-2.4887,-2.4869,-2.4888,-2.4893,-2.488,-2.4942,-2.4922,-2.493,-2.4954,-2.5017,-2.5021,-2.5024,-2.5052,-2.506,-2.5067,0,0,0,0,0,0,-2.4801,-2.4815,-2.4809,-2.4853,-2.4868,-2.4881,-2.4903,-2.4895,-2.4914,-2.4911,-2.4906,-2.491,-2.4949,-2.4956,-2.4933,-2.5001,-2.4977,-2.4982,-2.4995,-2.5003,-2.5009,-2.5006,-2.4908,0,0,0,0,0,-2.4811,-2.4837,-2.4848,-2.4886,-2.4894,-2.4897,-2.4911,-2.4908,-2.4923,-2.4929,-2.4937,-2.4951,-2.4974,-2.4989,-2.501,-2.5056,-2.5059,-2.5077,-2.5083,-2.5088,-2.5092,-2.5117,-2.5125,-2.5039,-2.5039,-2.5039,0,0,-2.4833,-2.4845,-2.4861,-2.4891,-2.4902,-2.4928,-2.4903,-2.4931,-2.495,-2.4933,-2.4969,-2.4975,-2.4991,-2.5033,-2.5051,-2.5039,-2.5117,-2.5093,-2.5097,-2.5098,-2.5121,-2.5129,-2.5137,-2.5041,-2.5041,-2.504,0,0,-2.4887,-2.4898,-2.4931,-2.4943,-2.496,-2.4963,-2.4971,-2.4985,-2.4989,-2.5025,-2.5013,-2.5036,-2.5075,-2.5087,-2.5098,-2.5157,-2.5146,-2.5164,-2.5195,-2.5219,-2.5226,-2.5232,-2.5252,-2.526,-2.5169,-2.5169,-2.5169,0,-2.4912,-2.495,-2.4948,-2.4977,-2.4991,-2.4978,-2.5011,-2.5023,-2.5046,-2.5055,-2.5042,-2.5092,-2.5101,-2.5145,-2.516,-2.517,-2.5178,-2.5162,-2.5225,-2.5231,-2.5237,-2.5256,-2.5264,-2.5171,-2.5171,-2.517,-2.517,0,-2.498,-2.5007,-2.5031,-2.5055,-2.5071,-2.5102,-2.5104,-2.5121,-2.5117,-2.5121,-2.5158,-2.5169,-2.5193,-2.5203,-2.5199,-2.5247,-2.5239,-2.5226,-2.5201,-2.5247,-2.5265,-2.5272,-2.5174,-2.5173,-2.5172,-2.5172,0,0,-2.5048,-2.5071,-2.508,-2.5091,-2.511,-2.513,-2.5161,-2.5185,-2.5199,-2.5216,-2.5241,-2.5275,-2.5263,-2.5276,-2.5273,-2.5294,-2.534,-2.5278,-2.5278,-2.5288,-2.5392,-2.5402,-2.541,-2.5333,-2.5335,-2.5336,-2.5391,0,-2.5102,-2.5155,-2.5155,-2.5204,-2.5229,-2.5218,-2.5244,-2.5258,-2.5263,-2.5284,-2.5289,-2.5313,-2.5296,-2.5303,-2.5324,-2.533,-2.536,-2.5326,-2.5355,-2.5356,-2.535,-2.542,-2.543,-2.5481,-2.5398,-2.5399,-2.54,0,-2.5171,-2.5191,-2.5243,-2.5259,-2.5269,-2.5293,-2.5315,-2.5336,-2.5352,-2.5354,-2.5369,-2.5363,-2.5393,-2.5369,-2.5411,-2.5387,-2.54,-2.5404,-2.5406,-2.5408,-2.538,-2.5422,-2.5498,-2.5505,-2.5411,-2.541,-2.541,0,-2.5215,-2.5255,-2.5291,-2.5301,-2.532,-2.5337,-2.5346,-2.5361,-2.5375,-2.5394,-2.5404,-2.5426,-2.5438,-2.5455,-2.5456,-2.5438,-2.5498,-2.5473,-2.55,-2.55,-2.5511,-2.551,-2.5589,-2.5521,-2.5521,-2.5521,-2.5521,0,-2.5274,-2.5306,-2.5311,-2.5333,-2.5369,-2.5368,-2.5403,-2.541,-2.5424,-2.5447,-2.5439,-2.546,-2.546,-2.5482,-2.5483,-2.5517,-2.5523,-2.5524,-2.5524,-2.5525,-2.5524,-2.5532,-2.5528,-2.5523,-2.5523,-2.5522,-2.5522,0,-2.5329,-2.5333,-2.5372,-2.5388,-2.5392,-2.5418,-2.5431,-2.5452,-2.5456,-2.5486,-2.5492,-2.5499,-2.5525,-2.5527,-2.5557,-2.5557,-2.5598,-2.5595,-2.5593,-2.5592,-2.5618,-2.5615,-2.5702,-2.5714,-2.564,-2.5641,-2.5641,0,-2.5366,-2.539,-2.5409,-2.5424,-2.5434,-2.5459,-2.5474,-2.5474,-2.549,-2.5511,-2.5529,-2.5554,-2.5574,-2.5615,-2.5622,-2.5645,-2.5641,-2.567,-2.5644,-2.5644,-2.5641,-2.5639,-2.5641,-2.5675,-2.5676,-2.5676,-2.5677,0,-2.5431,-2.5432,-2.5455,-2.5478,-2.5496,-2.5514,-2.5531,-2.5544,-2.5547,-2.5565,-2.5591,-2.5607,-2.5638,-2.5662,-2.5685,-2.5693,-2.5685,-2.5685,-2.5692,-2.5693,-2.569,-2.5691,-2.5606,-2.5683,-2.5682,-2.5682,-2.5681,-2.5681,-2.5477,-2.5499,-2.5515,-2.554,-2.5553,-2.557,-2.559,-2.5597,-2.562,-2.5645,-2.5644,-2.5673,-2.5689,-2.5718,-2.5729,-2.5751,-2.5741,-2.5752,-2.5754,-2.5757,-2.5759,-2.5688,-2.5755,-2.5755,-2.5755,-2.5755,-2.5755,0,-2.5542,-2.5552,-2.5575,-2.5599,-2.5619,-2.5611,-2.563,-2.5647,-2.5672,-2.5688,-2.5708,-2.5739,-2.5763,-2.5772,-2.5796,-2.5812,-2.5809,-2.5818,-2.5816,-2.5818,-2.5767,-2.5758,-2.582,-2.582,-2.582,-2.582,-2.582,-2.582,-2.5577,-2.5613,-2.5616,-2.5658,-2.5668,-2.5696,-2.5708,-2.5723,-2.5735,-2.577,-2.579,-2.5796,-2.5809,-2.5834,-2.5856,-2.5858,-2.5867,-2.5877,-2.5878,-2.5829,-2.5822,-2.5816,-2.5807,-2.5879,-2.5879,-2.5928,-2.5928,-2.5928]},{"header":{"parameterUnit":"m.s-1","parameterCategory":1,"la1":30.2991,"la2":30.254,"lo1":-89.0895,"lo2":-89.0444,"dy":0.0017,"dx":0.0017,"nx":28,"ny":28,"refTime":"2023-09-19T09:00:00:Z","depth":0,"parameterNumber":3,"parameterNumberName":"V-component_of_WINDS"},"data":[0,0,0,0,0,0,0,0,0,0,0,0,0,0,0,0,0,0,0,0,0,0,0,0,0,0,0,0,0,0,0,0,0,0,0,0,0,0,0,0,0,0,0,0,0,0,0,0,0,0,0,0,0,0,0,0,0,0,2.8186,2.8185,0,2.8108,2.8107,2.8106,2.8062,2.8062,2.8062,2.8062,2.7976,2.7974,2.7972,0,0,0,0,0,0,0,0,0,0,0,0,0,2.8292,2.8291,2.8186,2.8185,2.8184,2.8108,2.8107,2.8105,2.8062,2.8062,2.8062,2.8062,2.7977,2.7974,2.7972,0,0,0,0,0,0,0,0,0,0,0,0,0,2.8233,2.829,2.8186,2.8154,2.815,2.8108,2.8107,2.8105,2.8063,2.8062,2.8062,2.8062,2.7978,2.7974,2.7971,2.7954,0,0,2.7961,2.796,0,0,0,0,0,0,0,0,2.8237,2.8229,2.8159,2.8156,2.8152,2.8095,2.8112,2.8054,2.8063,2.8096,2.8062,2.8062,2.8015,2.8009,2.7994,2.795,2.7946,2.7961,2.7959,2.7957,2.7956,0,0,0,0,0,0,0,2.8241,2.8232,2.8155,2.8158,2.8154,2.8141,2.8132,2.8101,2.8057,2.8093,2.8089,2.8081,2.8013,2.7998,2.7992,2.7945,2.7961,2.7958,2.7956,2.7955,2.788,2.788,0,0,0,0,0,0,2.8251,2.8236,2.8157,2.8152,2.8195,2.8139,2.8129,2.8113,2.8057,2.8049,2.8081,2.8079,2.8003,2.7996,2.7989,2.7963,2.7957,2.7954,2.7952,2.788,2.788,2.788,0,0,0,0,0,0,2.8253,2.8244,2.816,2.8193,2.8182,2.8137,2.8119,2.8112,2.8096,2.8049,2.804,2.8074,2.8003,2.7993,2.7963,2.796,2.7953,2.795,2.788,2.788,2.788,2.7914,0,0,0,0,0,0,2.8257,2.8246,2.824,2.8194,2.818,2.8138,2.8119,2.811,2.8091,2.8088,2.804,2.8031,2.8002,2.7968,2.796,2.7955,2.7947,2.788,2.788,2.788,2.7913,2.7915,2.7917,0,0,0,0,0,2.8261,2.8252,2.824,2.8231,2.8173,2.8138,2.813,2.8098,2.8091,2.8084,2.8053,2.8033,2.7962,2.7965,2.7955,2.795,2.788,2.788,2.788,2.7912,2.7915,2.7917,0,0,0,0,0,0,2.8298,2.8245,2.8232,2.8208,2.8178,2.8131,2.8121,2.8102,2.8072,2.807,2.803,2.8019,2.7992,2.7968,2.7973,2.7929,2.7918,2.7916,2.7946,2.7948,2.795,2.7956,2.7945,0,0,0,0,0,2.8304,2.8282,2.8236,2.822,2.8205,2.8166,2.815,2.8128,2.8094,2.8081,2.8048,2.8014,2.7984,2.7965,2.7935,2.7909,2.7897,2.79,2.7902,2.7904,2.7903,2.7886,2.7886,2.788,2.788,2.788,0,0,2.8315,2.8283,2.8271,2.8226,2.82,2.8176,2.8156,2.8131,2.8112,2.8076,2.8046,2.802,2.798,2.7951,2.7937,2.793,2.7902,2.7904,2.7906,2.7904,2.7886,2.7886,2.7887,2.788,2.788,2.788,0,0,2.8322,2.8297,2.828,2.8255,2.8216,2.819,2.8186,2.8141,2.8123,2.8092,2.8064,2.804,2.799,2.7962,2.7941,2.7937,2.7916,2.7928,2.7938,2.7922,2.7923,2.7923,2.792,2.792,2.7926,2.7927,2.7927,0,2.834,2.8305,2.8273,2.8251,2.8231,2.8198,2.8179,2.8155,2.8108,2.8094,2.8088,2.8023,2.7994,2.7957,2.7956,2.7941,2.7933,2.7933,2.7926,2.7925,2.7925,2.7922,2.7921,2.7928,2.7928,2.7928,2.7928,0,2.8328,2.8304,2.8295,2.8252,2.823,2.821,2.8173,2.8155,2.8134,2.8108,2.8075,2.8039,2.8,2.799,2.7969,2.795,2.7947,2.7934,2.7922,2.7928,2.7924,2.7923,2.793,2.793,2.7929,2.7929,0,0,2.8357,2.8297,2.8294,2.8273,2.8228,2.8208,2.8184,2.8148,2.8133,2.8101,2.8079,2.8036,2.8023,2.8,2.7975,2.7961,2.7958,2.7949,2.7947,2.7951,2.7933,2.7943,2.7942,2.7945,2.7944,2.7944,2.7936,0,2.8358,2.8317,2.8287,2.8256,2.8232,2.8201,2.818,2.8149,2.8123,2.8097,2.8068,2.8039,2.8024,2.801,2.7994,2.7962,2.7954,2.7962,2.7922,2.7921,2.7932,2.7941,2.7951,2.7946,2.7935,2.7934,2.7934,0,2.8353,2.8324,2.8292,2.8248,2.8236,2.8219,2.8182,2.8159,2.8122,2.8104,2.8077,2.8052,2.8024,2.8015,2.7974,2.798,2.7961,2.7943,2.7942,2.7936,2.7927,2.7934,2.7943,2.7942,2.7932,2.7932,2.7932,0,2.8376,2.8328,2.8302,2.8286,2.8235,2.8223,2.82,2.8163,2.8143,2.811,2.8096,2.806,2.804,2.8011,2.7976,2.7974,2.7938,2.7927,2.7921,2.7922,2.7914,2.7915,2.792,2.7904,2.7904,2.7904,2.7904,0,2.8379,2.836,2.8312,2.8296,2.8273,2.8238,2.8215,2.819,2.8157,2.8134,2.8104,2.8082,2.8038,2.801,2.7982,2.7951,2.7943,2.7926,2.7918,2.7928,2.793,2.7915,2.7914,2.7904,2.7904,2.7904,2.7904,0,2.84,2.8368,2.8337,2.8292,2.8279,2.8264,2.8224,2.8206,2.8179,2.815,2.8141,2.8097,2.8063,2.8025,2.7978,2.7959,2.7929,2.7919,2.7943,2.7938,2.7934,2.7935,2.7928,2.7925,2.7913,2.7913,2.7913,0,2.8404,2.8389,2.8342,2.8325,2.8304,2.8277,2.8257,2.8221,2.82,2.8156,2.8143,2.8107,2.8076,2.8022,2.7985,2.7948,2.7936,2.7936,2.793,2.794,2.7934,2.7936,2.7933,2.7938,2.7938,2.7939,2.7939,0,2.8414,2.8398,2.8371,2.8338,2.8314,2.8286,2.8256,2.8243,2.82,2.8178,2.8144,2.812,2.8072,2.8036,2.7995,2.7969,2.7946,2.7941,2.7938,2.7947,2.7961,2.7952,2.7947,2.7941,2.7941,2.7941,2.7941,2.7941,2.8425,2.841,2.8375,2.8344,2.8318,2.8291,2.8272,2.8243,2.8214,2.8174,2.8153,2.8119,2.808,2.8022,2.7997,2.7967,2.796,2.7956,2.7954,2.7953,2.7955,2.7966,2.796,2.796,2.7959,2.7959,2.7959,0,2.8432,2.8408,2.8381,2.8341,2.8317,2.83,2.8265,2.8245,2.8216,2.8183,2.8153,2.8113,2.8077,2.8037,2.7999,2.7983,2.7971,2.7973,2.7974,2.7968,2.7964,2.7971,2.7983,2.7983,2.7983,2.7983,2.7983,2.7983,2.8433,2.8406,2.8386,2.8345,2.832,2.8288,2.8269,2.8243,2.8216,2.8173,2.8144,2.8119,2.8082,2.8041,2.8006,2.7995,2.7982,2.7987,2.7973,2.797,2.7968,2.7966,2.7972,2.7985,2.7985,2.7978,2.7978,2.7978]}]]